星链-33998 (STARLINK-33998)

导读 | 豆包AI

STARLINK-33998是美国SpaceX公司星链(Starlink)星座中的第二代低轨互联网卫星,于2025年5月13日发射入轨。它属于星链二代主力卫星,配备增强型相控阵天线与激光星间链路,单星容量超100Gbps,可提供低时延高速宽带服务。卫星采用氪离子推进,具备自主轨道机动与避碰能力,退役后会再入大气层完全销毁,助力星链实现全球无缝互联网覆盖,服务偏远地区接入、移动互联与应急通信等场景。

Basic Information
目录编号:
63951
目录名称:
STARLINK-33998
国际标识:
2025-098AB
轨道中心:
EARTH
卫星名称:
星链-33998
卫星全名:
星链-33998 (STARLINK-33998)
卫星状态:
在轨 (已飞行305 天)
发射日期:
2025-05-13 UTC
国别 :
美国 (US)
星等 :
--
Orbit Information
数据来源 国际轨道数据 AOE轨道数据
星历时间 2026-03-14T22:59:40+0800
5小时前
查看轨道信息
2026-03-12T10:00:00+0800
2天前
查看轨道信息
半长轴 6950.098km 6950.177km
偏心率 0.000293 0.0003496
轨道倾角 70.000° 69.997°
近地点辐角 280.880° 275.030°
升交点赤经 261.931° 268.341°
平近点角 79.203° 60.499°
近地点 569.924km 569.61km
远地点 573.998km 574.47km
周期 96.105分钟 96.107分钟
每日圈数 14.98361 14.983353
Detailed Information
固有亮度:
5
最大亮度:
2.5
卫星平台:
Starlink V1.0
覆盖范围:
全球
运营商:
太空探索技术公司
运营商所在国:
美国
制造商(研发单位):
太空探索技术公司
制造商所在国:
美国
使用方式:
暂无
Satellite Introduction
Starlink 计划是 SpaceX 推出的全球卫星互联网项目,通过发射低轨道卫星,为全球尤其是偏远地区提供高速、低延迟的互联网服务。自 2019 年起,Starlink 已部署数千颗卫星,旨在缩小全球数字鸿沟,推动互联网普及。该项目还为军事、航空等行业提供通信支持,带来广泛经济效益。
2D Orbit Map
3D Orbit Map
Orbit Altitude Analysis Chart
Orbit Inclination Analysis Chart
Orbit Comprehensive Analysis Chart
View Comprehensive Chart